User: anonymous   Login
Location: Unspecified
(0.0000°N, 0.0000°E)
Time: 02:59:41
(UTC+00:00)
Language:

Syncom 3 - Orbit

View from above orbital plane
View from above orbital plane
View from above satellite
View from above satellite

Ground track
Ground track

The orbit data is extracted from the following two-line orbital elements,

1   858U 64047A   18170.80408255 -.00000121 +00000-0 +00000-0 0  9996
2   858 000.5017 011.1707 0002683 228.1628 119.0339 01.00264991024195
Epoch (UTC): 19 June 2018 19:17:52
Eccentricity: 0.0002683
inclination: 0.5017°
perigee height: 35777 km
apogee height: 35799 km
right ascension of ascending node: 11.1707°
argument of perigee: 228.1628°
revolutions per day: 1.00264991
mean anomaly at epoch: 119.0339°
orbit number at epoch: 2419

The dashed part of the orbit path shows where the satellite is in the earth's shadow,  

DLR